Miscellaneous Local Product
Issued by NWS Hastings, NE

Home | Current Version | Previous Version | Text Only | Print | Product List | Glossary Off
Versions: 1 2 3 4 5 6 7 8 9 10 11 12 13 14 15 16 17 18 19 20 21 22 23 24 25 26 27 28 29 30 31 32 33 34 35 36 37 38 39 40 41 42 43 44 45 46 47 48 49 50

000
AXUS43 KGID 012102
MISGRI

GID CWA HOURLY WEATHER ROUNDUP
NATIONAL WEATHER SERVICE HASTINGS NE
300 PM CST THU DEC 01 2016

NOTE: "FAIR" INDICATES FEW OR NO CLOUDS BELOW 12,000 FEET WITH NO
SIGNIFICANT WEATHER AND/OR OBSTRUCTIONS TO VISIBILITY.

...SOUTH CENTRAL NEBRASKA...

CITY           SKY/WX    TMP DP  RH WIND       PRES   REMARKS
GRAND ISLAND   CLOUDY    42  25  50 W7        29.97F
HASTINGS       SUNNY     41  22  46 NW9       29.99R
KEARNEY        SUNNY     43  21  42 CALM      29.96S
ORD            SUNNY     40  21  46 NW7       29.95S
YORK           SUNNY     39  25  56 NW5       29.99R
AURORA         PTSUNNY   40  24  53 W6        29.98R
LEXINGTON      SUNNY     44  17  33 W3        29.95S
HOLDREGE       SUNNY     42  21  43 SW7       29.96S
HEBRON         SUNNY     43  22  43 W5        30.00R

...NEBRASKA PANHANDLE...

CITY           SKY/WX    TMP DP  RH WIND       PRES   REMARKS
CHADRON        CLOUDY    42  12  29 NW14      29.92S
ALLIANCE       SUNNY     41  12  30 NW12      29.90S
SCOTTSBLUFF    SUNNY     43  12  28 W10       29.92S
SIDNEY         SUNNY     41  12  30 NW7       29.92S

...WESTERN AND NORTH CENTRAL NEBRASKA...

CITY           SKY/WX    TMP DP  RH WIND       PRES   REMARKS
VALENTINE      CLOUDY    35  21  56 N5        29.94S WCI  31
AINSWORTH      CLOUDY    35  24  65 N7        29.95R WCI  29
ONEILL         CLOUDY    32  25  76 NW5       29.98R WCI  28
BROKEN BOW     SUNNY     44  19  36 NW7       29.93S
IMPERIAL       PTSUNNY   46  13  26 NW13      29.93S
NORTH PLATTE   SUNNY     45  16  31 VRB5      29.94S
MCCOOK         SUNNY     45  18  34 VRB6      29.96F

...EASTERN NEBRASKA...

CITY           SKY/WX    TMP DP  RH WIND       PRES   REMARKS
NORFOLK        CLOUDY    34  24  67 NW9       29.98S WCI  27
SO SIOUX CITY  CLOUDY    37  29  72 NW7       29.98R WCI  32
TEKAMAH        CLOUDY    37  27  67 NW8       30.00R WCI  31
COLUMBUS       CLOUDY    37  25  60 NW9       29.99S WCI  31
ALBION         CLOUDY    36  24  61 N8        29.98S WCI  29
OMAHA EPPLEY   CLOUDY    38  26  62 NW7       30.00F WCI  33
OFFUTT AFB     CLOUDY    38  27  65 NW8       30.00S WCI  32
MILLARD        CLOUDY    39  28  64 NW5       30.00S
LINCOLN        SUNNY     43  25  49 NW7       30.00S
NEBRASKA CITY  MOSUNNY   40  23  49 NW6       29.99F
BEATRICE       SUNNY     43  26  50 NW7       30.00R
FALLS CITY     SUNNY     42  27  55 W9        30.00F

...NORTHERN KANSAS...

CITY           SKY/WX    TMP DP  RH WIND       PRES   REMARKS
GOODLAND       SUNNY     46   9  22 S9        29.94F
HILL CITY      SUNNY     50  16  25 NW9       29.98F
NORTON         CLEAR     48  10  21 W8        29.96S
PHILLIPSBURG   SUNNY     48  19  32 W9        29.98S
SMITH CENTER   SUNNY     45  21  39 SW5       29.99S
BELOIT         SUNNY     45  18  33 W3        30.00S
HAYS           SUNNY     49  17  28 SW5       29.99
RUSSELL        SUNNY     48  15  26 W6        29.98S
CONCORDIA      SUNNY     43  24  47 W9        30.00S
SALINA         SUNNY     49  23  36 S6        30.02S
TOPEKA         SUNNY     45  25  45 SW6       30.03S



USA.gov is the U.S. government's official web portal to all federal, state and local government web resources and services.